Location: Borojevi?i
(45.0486°N, 16.2297°E)
Time: 21:30:30
(UTC+00:00)

Cosmos 44 - Pass Details

Date: 08 August 2020
Orbit: 583 x 779 km, 65.1° (Epoch: 22 September)

Event Time Altitude Azimuth Distance (km) Brightness Sun altitude
Rises 21:15:29 0° 328° (NNW) 3,028 8.0 -24.6°
Reaches altitude 10° 21:17:50 10° 334° (NNW) 2,142 6.9 -24.8°
Maximum altitude 21:22:35 49° 49° (NE) 927 3.9 -25.2°
Enters shadow 21:23:08 46° 71° (ENE) 957 3.9 -25.2°
